Regional Weather Roundup
Issued by NWS Wakefield, VA

Home | Current Version | Previous Version | Text Only | Print | Product List | Glossary Off
Versions: 1 2 3 4 5 6 7 8 9 10 11 12 13 14 15 16 17 18 19 20 21 22 23 24 25 26 27 28

000
ASUS41 KAKQ 221910
RWRAKQ

REGIONAL WEATHER ROUNDUP
NATIONAL WEATHER SERVICE WAKEFIELD VA
300 PM EDT WED OCT 22 2014

Note: "fair" indicates few or no clouds below 12,000 feet with no
significant weather and/or obstructions to visibility. * = Denotes
station may not report precipitation (e.g., rain,snow,etc.),
thunder or fog.

VAZ042-051-052>054-056-222000-
NORTHERN VIRGINIA

CITY           SKY/WX    TMP DP  RH WIND       PRES   REMARKS
WASH NATIONAL  LGT RAIN  57  50  77 NW21      29.93S
DULLES         DRIZZLE   52  49  89 NW14G20   29.95F
FORT BELVOIR   LGT RAIN  54  50  87 NW14G22   29.94R
QUANTICO       LGT RAIN  54  49  83 N21G29    29.95R
FREDERICKSBRG* LGT RAIN  56  53  89 NW12G25   29.93S
STAFFORD*      LGT RAIN  53  53 100 NW17G24   29.98S
WARRENTON      LGT RAIN  54  54 100 NW12G21   29.96S
CULPEPER*      RAIN      54  50  87 NW13G20   29.98S
MANASSAS*      LGT RAIN  54  52  94 NW14G20   29.96S
LEESBURG*      CLOUDY    54  52  94 N17G23    29.97S
WINCHESTER     RAIN      54  45  71 NW14      30.00S
FRONT ROYAL*   CLOUDY    52  46  82 NW9G20    30.00S
LURAY*         CLOUDY    54  46  76 NW13      30.02R
$$

VAZ048-049-060>072-079>083-222000-
CENTRAL AND SOUTH CENTRAL VIRGINIA...AND NORTH CENTRAL NORTH CAROLINA

CITY           SKY/WX    TMP DP  RH WIND       PRES   REMARKS
RICHMOND       LGT RAIN  58  51  78 NW14G22   29.91S
CHESTERFIELD*  CLOUDY   N/A N/A N/A NW17      29.92F
PETERSBURG*    DRIZZLE   57  52  82 NW14      29.92F
HANOVER        CLOUDY    56  49  77 NW12G20   29.94S
TAPPAHANNOCK*  DRIZZLE   55  50  84 NW13G20   29.89S
CHARLOTTSVILLE CLOUDY    57  44  62 N16G30    29.98S
ORANGE*        CLOUDY    55  46  71 NW14G22   29.99R
LOUISA*        CLOUDY    57  48  72 N12G23    29.95R
FARMVILLE*     CLOUDY    63  43  48 NW8G16    29.94R
CREWE*         CLOUDY    61  44  54 NW7G17    29.94S
FORT PICKETT*  CLOUDY    59  47  66 N9G20     29.94S
LUNENBURG*     CLOUDY    62  46  56 NW13G20   29.94S
SOUTH HILL*    CLOUDY    63  48  59 NW7       29.98S
LAWRENCEVILLE* CLOUDY    58  51  79 NW8       29.93S
ROANOKE RAPIDS MOCLDY    59  50  72 NW13G18   29.93S
RALEIGH        MOSUNNY   66  41  40 N9        29.97F
$$

VAZ088>098-222000-
SOUTHEAST VIRGINIA

CITY           SKY/WX    TMP DP  RH WIND       PRES   REMARKS
NORFOLK        CLOUDY    58  50  75 N14G25    29.82S
VIRGINIA BEACH CLOUDY    59  53  80 NW20G26   29.80S
NORFOLK NAVAL  CLOUDY    59  51  75 NW18G28   29.84S
WEST POINT*    CLOUDY    57  52  84 NW9G21    29.88S
NEWPORT NEWS   LGT RAIN  58  52  80 NW15G25   29.85R
LANGLEY AFB    LGT RAIN  57  56  99 NW20      29.84R
FORT EUSTIS    CLOUDY    57  57 100 NW17G26   29.84S
WILLIAMSBURG*  MOSUNNY   57  54  88 NW14G24   29.87S
HR EXEC AP*    CLOUDY    55  50  82 NW7       29.87S
FRANKLIN*      CLOUDY    55  52  88 NW13G22   29.88F
WAKEFIELD      CLOUDY    56  50  80 NW9G18    29.88F
$$

VAZ020-022-025-037-045-222000-
WEST CENTRAL AND SOUTHWEST VIRGINIA

CITY           SKY/WX    TMP DP  RH WIND       PRES   REMARKS
STAUNTON*      PTSUNNY   58  42  54 N15G26    30.03S
HOT SPRINGS VA CLOUDY    44  37  75 NW17G25   30.03S
LYNCHBURG      SUNNY     62  40  44 NW12G21   29.99F
DANVILLE       MOSUNNY   65  41  41 NW17G25   30.00F
SOUTH BOSTON*  NOT AVBL
MARTINSVILLE   PTSUNNY   59  42  52 NW20      30.07S
ROANOKE        PTSUNNY   59  39  47 NW21G26   30.05F
BLACKSBURG     PTSUNNY   54  45  71 NW13      30.10F
DUBLIN*        MOSUNNY   51  41  68 NW10G22   30.12S
MARION*        CLOUDY    47  40  79 NW10G16   30.17R
HILLSVILLE*    CLOUDY    46  38  74 NW15G23   30.10R
RICHLANDS*     CLOUDY    46  42  88 NW12G18   30.17S
WISE*          LGT RAIN  43  43 100 N8        30.20F
ABINGDON*      CLOUDY    48  41  75 N7        30.18S
$$

MDZ021>025-VAZ099-100-222000-
SOUTHERN MARYLAND AND THE DELMARVA PENINSULA

CITY           SKY/WX    TMP DP  RH WIND       PRES   REMARKS
PATUXENT RIVER LGT RAIN  55  52  89 NW24      29.84S FOG
BAY BRIDGE APT LGT RAIN  55  54  94 NW17G29   29.86F
LEONARDTOWN    CLOUDY    54  50  87 NW8G16    29.88R
DOVER          LGT RAIN  55  54  94 N21G30    29.80S
GEORGETOWN     CLOUDY    59  52  77 N9        29.78F
EASTON         CLOUDY    57  57 100 N12G18    29.87S
CAMBRIDGE      CLOUDY    55  54  94 N12G18    29.82S VSB<1/4
SALISBURY      LGT RAIN  59  53  80 N14G23    29.78S
OCEAN CITY     RAIN      57  55  93 N13G20    29.74S FOG
WALLOPS ISLAND CLOUDY    60  54  80 N16       29.77R
ACCOMACK*      CLOUDY    59  52  77 NW13G24   29.78S
$$

NCZ012>017-030>032-222000-
EASTERN NORTH CAROLINA

CITY           SKY/WX    TMP DP  RH WIND       PRES   REMARKS
ELIZABETH CITY PTSUNNY   62  51  67 NW21G28   29.83F
AHOSKIE*       CLOUDY    56  49  78 NW6G17    29.91S
EDENTON*       CLOUDY    57  50  76 N20G28    29.87S
CURRITUCK*     CLOUDY    60  49  68 NW9G23    29.82S
KILL DEVIL HLS CLOUDY    58  51  77 NW15G23   29.80S
MANTEO         CLOUDY    58  51  78 NW15G25   29.82S
CAPE HATTERAS  CLOUDY    58  50  75 NW16G25   29.85S
TARBORO*       CLOUDY    62  48  60 NW12G20   29.94S
GOLDSBORO      MOSUNNY   65  49  56 NW17G25   29.93S
WASHINGTON     CLOUDY    60  47  63 NW13G23   29.91S
GREENVILLE     CLOUDY    61  46  59 N16G24    29.95S
NEW BERN       CLOUDY    64  46  52 NW10      29.92S
WILMINGTON     MOSUNNY   68  45  43 NW13G21   29.94S
$$

VAZ048-222000-
ELSEWHERE

CITY           SKY/WX    TMP DP  RH WIND       PRES   REMARKS
HARRISBURG PA  CLOUDY    55  47  74 N14G25    29.95F
BALTIMORE      LGT RAIN  54  51  90 NW12      29.90F
ANNAPOLIS      LGT RAIN  56  52  86 NW16      29.88S
ANDREWS AFB    RAIN      54  52  94 NW18G25   29.90S
WILMINGTON DE  RAIN      55  52  89 N14       29.86F
PHILADELPHIA   RAIN      55  51  86 N16       29.85F
WILDWOOD NJ*   CLOUDY    59  48  67 N14G28    29.77F
ATLANTIC CITY  CLOUDY    55  53  93 N17G25    29.76F
HENDERSON NC   CLOUDY    62  40  45 NW7       29.96S
GREENSBORO     MOSUNNY   64  41  42 N14G21    30.02R
ROCKY MOUNT    CLOUDY    65  47  52 NW10G21   29.94F
FAYETTEVILLE   MOSUNNY   68  42  38 N13G23    29.97S
CHARLOTTE      MOSUNNY   66  37  34 N8        30.05F
$$

VAZ100-222000-
MARINE

STATION/POSITION TIME  TEMP    WIND        PRES    WAVE   SWELL
                       AIR SEA DIR/SP/G            HT/PER HT/PER
                 (UTC) (F)     (DEG/KT/KT) (MB)    (FT/S) (FT/S)
44066 TX TWR #4  1800   62 66   30/ 29/ 37 1003.7F  11/ 7
CAPE MAY NJ      1900   60 67  360/ 11/ 18 1007.2F
LEWES DE         1900   60 61   10/ 25/ 29 1007.7S
15NM E FENWICK I 1900   62 66  350/ 27/ 33 1005.2F   9/ 6
OCEAN-CITY-INLET 1900   59 65  360/ 16/ 20 1006.4S
WACHAPREAGUE VA  1900   60 63  320/  8/ 17 1008.2F
THOMAS POINT MD  1900   56 63  340/ 21/ 24 1011.9S
GOOSES REEF MD   1900   57     350/ 25/ 31 1010.8R
COVE POINT MD    1900   55     350/ 31/ 35 1010.1F
SOLOMONS ISLAND  1900      65                N/A
BISHOPS HEAD MD  1900   56 60  340/ 14/ 20 1009.1R
PINEY POINT MD   1900          350/ 25/ 29   N/A
POTOMAC MD       1900   57     340/ 21/ 27 1009.6S
CAMBRIDGE MD     1900   56 62  350/ 15/ 23 1009.8R
LEWISETTA VA     1900   56 62  340/ 18/ 28 1010.3F
RAPPAHANNOCK LGT 1900          330/ 28/ 32 1009.2R
STINGRAY PT      1900   57     330/ 19/ 23 1010.4R
YORK RVR RNG VA  1900   56     330/ 22/ 25 1009.5F
YORKTOWN VA      1900   56 67  320/ 20/ 23 1010.2S
JAMESTOWN VA     1900   56     350/ 19/ 25   N/A
DOMINION TERM VA 1900   58     320/  4/ 14 1010.1S
KIPTOPEKE VA     1900      68  330/ 28/ 32   N/A
CHES BAY BRIDGE  1900   58 66  300/ 28/ 33 1008.9S
CHESAPEAKE LGHT  1800   60     330/ 27/ 29 1008.1F
WILLOUBY STN VA  1900   58     330/ 20/ 22 1008.7R
S CRANEY ISL VA  1900          300/ 16/ 24 1009.7S
CAPE HENRY BUOY  1900      69                N/A     5/ 5
1ST LANDING BUOY 1900   60     320/ 25/ 29 1008.8S
CAPE CHARLES BUO 1900      68                N/A     4/ 4   2/10
64NM E OF VA BCH 1900   58 69  320/ 17/ 21 1005.5F   5/ 6   2/10
DUCK PIER NC     1900   59 68  300/ 18/ 25 1008.3S
44100 DUCK FRF   1900      70                N/A     5/ 5
44056 DUCK FRF   1900                        N/A     3/ 4
OREGON INLET NC  1900   58 67  290/ 20/ 26 1009.3S
HATTERAS NC      1900   60 69  300/ 21/ 25 1011.1S
DIAMOND SHLS NC  1900   62     300/ 25/ 31 1009.9F   5/ 5   2/11
CAPE LOOKOUT NC  1800   63     300/ 15/ 19 1012.2F
$$



USA.gov is the U.S. government's official web portal to all federal, state and local government web resources and services.